| time (UTC) | temp F | wind direction | speed knots | gust knots | rain 1hr in | rain 24hr in | rain mn in | humidity % | barometer mb |
| 20260504202341 | 73 | 173 | 9.6 | 17.4 | 0.00 | 0.00 | 0.00 | 48 | 1008.5 |
| 20260504201843 | 73 | 186 | 9.6 | 18.2 | 0.00 | 0.00 | 0.00 | 45 | 1008.6 |
| 20260504201608 | 73 | 190 | 9.6 | 18.2 | 0.00 | 0.00 | 0.00 | 45 | 1008.7 |
| 20260504201108 | 73 | 193 | 9.6 | 18.2 | 0.00 | 0.00 | 0.00 | 44 | 1008.8 |
| 20260504200337 | 73 | 182 | 9.6 | 18.2 | 0.00 | 0.00 | 0.00 | 46 | 1008.9 |
| 20260504200108 | 73 | 254 | 10.4 | 19.1 | 0.00 | 0.00 | 0.00 | 45 | 1009.0 |
| 20260504195338 | 73 | 197 | 11.3 | 19.1 | 0.00 | 0.00 | 0.00 | 46 | 1008.9 |
| 20260504194838 | 73 | 177 | 10.4 | 19.1 | 0.00 | 0.00 | 0.00 | 47 | 1009.0 |
| 20260504194333 | 73 | 200 | 10.4 | 18.2 | 0.00 | 0.00 | 0.00 | 48 | 1009.1 |
| 20260504193834 | 73 | 173 | 9.6 | 18.2 | 0.00 | 0.00 | 0.00 | 48 | 1009.0 |
| 20260504193334 | 73 | 191 | 10.4 | 19.1 | 0.00 | 0.00 | 0.00 | 46 | 1009.2 |
| 20260504192834 | 72 | 155 | 10.4 | 19.1 | 0.00 | 0.00 | 0.00 | 44 | 1009.1 |
| 20260504192335 | 72 | 199 | 9.6 | 18.2 | 0.00 | 0.00 | 0.00 | 47 | 1009.2 |
| 20260504191836 | 72 | 162 | 9.6 | 18.2 | 0.00 | 0.00 | 0.00 | 48 | 1009.3 |
| 20260504191330 | 73 | 184 | 8.7 | 17.4 | 0.00 | 0.00 | 0.00 | 48 | 1009.3 |
| 20260504190830 | 72 | 215 | 7.8 | 17.4 | 0.00 | 0.00 | 0.00 | 46 | 1009.4 |
| 20260504190329 | 73 | 214 | 7.0 | 16.5 | 0.00 | 0.00 | 0.00 | 50 | 1009.5 |
| 20260504185829 | 72 | 254 | 7.0 | 20.0 | 0.00 | 0.00 | 0.00 | 47 | 1009.6 |
| 20260504185329 | 72 | 189 | 9.6 | 20.0 | 0.00 | 0.00 | 0.00 | 47 | 1009.7 |
| 20260504184829 | 72 | 190 | 7.8 | 19.1 | 0.00 | 0.00 | 0.00 | 45 | 1009.9 |
| 20260504184325 | 71 | 205 | 7.0 | 16.5 | 0.00 | 0.00 | 0.00 | 48 | 1009.9 |
| 20260504183825 | 71 | 230 | 8.7 | 16.5 | 0.00 | 0.00 | 0.00 | 47 | 1010.0 |
| 20260504183324 | 71 | 217 | 7.8 | 15.6 | 0.00 | 0.00 | 0.00 | 46 | 1010.0 |
| 20260504182824 | 71 | 185 | 7.8 | 21.7 | 0.00 | 0.00 | 0.00 | 49 | 1010.0 |
| 20260504182324 | 71 | 233 | 7.0 | 21.7 | 0.00 | 0.00 | 0.00 | 48 | 1010.2 |
| 20260504181821 | 71 | 223 | 6.1 | 19.1 | 0.00 | 0.00 | 0.00 | 47 | 1010.3 |
| 20260504181551 | 71 | 180 | 7.0 | 19.1 | 0.00 | 0.00 | 0.00 | 47 | 1010.2 |
| 20260504180819 | 71 | 233 | 6.1 | 13.0 | 0.00 | 0.00 | 0.00 | 48 | 1010.3 |
| 20260504180323 | 71 | 226 | 7.8 | 17.4 | 0.00 | 0.00 | 0.00 | 49 | 1010.5 |
| 20260504180318 | 71 | 201 | 7.0 | 17.4 | 0.00 | 0.00 | 0.00 | 47 | 1010.3 |
| 20260504175318 | 71 | 227 | 7.0 | 13.0 | 0.00 | 0.00 | 0.00 | 48 | 1010.5 |
| 20260504174811 | 71 | 228 | 6.1 | 13.0 | 0.00 | 0.00 | 0.00 | 50 | 1010.6 |
| 20260504174312 | 70 | 247 | 7.0 | 13.9 | 0.00 | 0.00 | 0.00 | 50 | 1010.6 |
| 20260504174043 | 70 | 223 | 8.7 | 20.0 | 0.00 | 0.00 | 0.00 | 46 | 1010.5 |
| 20260504173313 | 70 | 227 | 9.6 | 20.0 | 0.00 | 0.00 | 0.00 | 49 | 1010.6 |
| 20260504172812 | 70 | 236 | 7.8 | 14.8 | 0.00 | 0.00 | 0.00 | 52 | 1010.8 |
| 20260504172313 | 70 | 193 | 3.5 | 14.8 | 0.00 | 0.00 | 0.00 | 47 | 1010.6 |
| 20260504171808 | 70 | 227 | 4.3 | 13.0 | 0.00 | 0.00 | 0.00 | 48 | 1010.8 |
| 20260504171307 | 69 | 215 | 4.3 | 12.2 | 0.00 | 0.00 | 0.00 | 51 | 1010.9 |
| 20260504170805 | 69 | 221 | 6.1 | 16.5 | 0.00 | 0.00 | 0.00 | 50 | 1011.0 |
| 20260504170306 | 68 | 228 | 7.8 | 16.5 | 0.00 | 0.00 | 0.00 | 47 | 1011.1 |
| 20260504160255 | 67 | 209 | 7.8 | 14.8 | 0.00 | 0.00 | 0.00 | 51 | 1011.9 |
| 20260504150743 | 64 | 208 | 2.6 | 8.7 | 0.00 | 0.00 | 0.00 | 53 | 1012.4 |
| 20260504150242 | 64 | 241 | 3.5 | 9.6 | 0.00 | 0.00 | 0.00 | 53 | 1012.4 |
| 20260504141226 | 60 | 267 | 0.0 | 0.0 | 0.00 | 0.00 | 0.00 | 58 | 1013.0 |
| 20260504140726 | 60 | 103 | 0.0 | 0.0 | 0.00 | 0.00 | 0.00 | 59 | 1012.9 |
| 20260504140224 | 59 | 96 | 0.0 | 0.0 | 0.00 | 0.00 | 0.00 | 60 | 1013.1 |
| 20260504130212 | 53 | 121 | 0.0 | 0.0 | 0.00 | 0.00 | 0.00 | 69 | 1013.5 |
| 20260504120155 | 48 | 80 | 0.0 | 0.0 | 0.00 | 0.00 | 0.00 | 78 | 1013.6 |
| 20260504110636 | 42 | 205 | 0.0 | 0.0 | 0.00 | 0.00 | 0.00 | 85 | 1013.4 |
| 20260504110133 | 41 | 226 | 0.0 | 0.0 | 0.00 | 0.00 | 0.00 | 86 | 1013.5 |
| 20260504100611 | 38 | 232 | 0.0 | 0.0 | 0.00 | 0.00 | 0.00 | 85 | 1013.6 |
| 20260504100109 | 38 | 232 | 0.0 | 0.0 | 0.00 | 0.00 | 0.00 | 84 | 1013.7 |
| 20260504081827 | 43 | 231 | 0.0 | 0.0 | 0.00 | 0.00 | 0.00 | 75 | 1013.9 |
| 20260504081054 | 43 | 227 | 0.0 | 0.0 | 0.00 | 0.00 | 0.00 | 75 | 1014.0 |
| 20260504080556 | 43 | 227 | 0.0 | 0.0 | 0.00 | 0.00 | 0.00 | 75 | 1013.9 |
| 20260504050019 | 46 | 222 | 0.0 | 0.0 | 0.00 | 0.00 | 0.00 | 68 | 1014.0 |
| 20260504045516 | 46 | 208 | 0.0 | 0.0 | 0.00 | 0.00 | 0.00 | 67 | 1014.0 |
| 20260504045015 | 46 | 222 | 0.0 | 0.0 | 0.00 | 0.00 | 0.00 | 66 | 1014.0 |
| 20260504044513 | 46 | 224 | 0.0 | 0.0 | 0.00 | 0.00 | 0.00 | 67 | 1014.1 |
| 20260504044013 | 47 | 211 | 0.0 | 0.0 | 0.00 | 0.00 | 0.00 | 66 | 1014.1 |
| 20260504043739 | 47 | 226 | 0.0 | 0.0 | 0.00 | 0.00 | 0.00 | 65 | 1014.0 |
| 20260504043240 | 47 | 231 | 0.0 | 0.0 | 0.00 | 0.00 | 0.00 | 65 | 1014.0 |
| 20260504042508 | 47 | 215 | 0.0 | 0.0 | 0.00 | 0.00 | 0.00 | 65 | 1014.0 |
| 20260504042009 | 47 | 198 | 0.0 | 4.3 | 0.00 | 0.00 | 0.00 | 66 | 1014.0 |
| 20260504041507 | 47 | 198 | 0.0 | 4.3 | 0.00 | 0.00 | 0.00 | 64 | 1014.0 |
| 20260504041008 | 48 | 243 | 0.0 | 6.1 | 0.00 | 0.00 | 0.00 | 64 | 1014.1 |
| 20260504040502 | 48 | 230 | 0.9 | 6.1 | 0.00 | 0.00 | 0.00 | 64 | 1014.0 |
| 20260504040002 | 48 | 234 | 0.9 | 6.1 | 0.00 | 0.00 | 0.00 | 63 | 1014.0 |
| 20260504035734 | 48 | 242 | 0.9 | 6.1 | 0.00 | 0.00 | 0.00 | 63 | 1014.0 |
| 20260504035003 | 48 | 236 | 0.0 | 6.1 | 0.00 | 0.00 | 0.00 | 63 | 1013.8 |
| 20260504034503 | 48 | 220 | 0.9 | 6.1 | 0.00 | 0.00 | 0.00 | 62 | 1013.7 |
| 20260504034003 | 48 | 247 | 1.7 | 6.1 | 0.00 | 0.00 | 0.00 | 62 | 1013.7 |
| 20260504033502 | 48 | 242 | 2.6 | 7.0 | 0.00 | 0.00 | 0.00 | 62 | 1013.6 |
| 20260504033000 | 49 | 231 | 0.9 | 7.0 | 0.00 | 0.00 | 0.00 | 62 | 1013.7 |
| 20260504032728 | 49 | 242 | 0.0 | 0.0 | 0.00 | 0.00 | 0.00 | 62 | 1013.5 |
| 20260504031959 | 49 | 217 | 0.0 | 0.0 | 0.00 | 0.00 | 0.00 | 62 | 1013.7 |
| 20260504031730 | 49 | 226 | 0.0 | 0.0 | 0.00 | 0.00 | 0.00 | 63 | 1013.6 |
| 20260504031228 | 49 | 230 | 0.0 | 0.0 | 0.00 | 0.00 | 0.00 | 62 | 1013.5 |
| 20260504030456 | 49 | 254 | 0.0 | 0.0 | 0.00 | 0.00 | 0.00 | 62 | 1013.4 |
| 20260504025949 | 49 | 241 | 0.0 | 0.0 | 0.00 | 0.00 | 0.00 | 61 | 1013.5 |
| 20260504025450 | 49 | 246 | 0.0 | 0.0 | 0.00 | 0.00 | 0.00 | 61 | 1013.4 |
| 20260504025222 | 49 | 255 | 0.0 | 0.0 | 0.00 | 0.00 | 0.00 | 61 | 1013.4 |
| 20260504024451 | 49 | 244 | 0.0 | 0.0 | 0.00 | 0.00 | 0.00 | 61 | 1013.5 |
| 20260504023951 | 49 | 230 | 0.0 | 0.0 | 0.00 | 0.00 | 0.00 | 60 | 1013.5 |
| 20260504023452 | 49 | 230 | 0.0 | 0.0 | 0.00 | 0.00 | 0.00 | 60 | 1013.4 |
| 20260504022946 | 49 | 234 | 0.0 | 0.0 | 0.00 | 0.00 | 0.00 | 61 | 1013.5 |
| 20260504022447 | 49 | 202 | 0.0 | 0.0 | 0.00 | 0.00 | 0.00 | 62 | 1013.6 |
| 20260504022216 | 49 | 239 | 0.0 | 7.0 | 0.00 | 0.00 | 0.00 | 60 | 1013.6 |
| 20260504022101 | 50 | 239 | 0.0 | 7.0 | 0.00 | 0.00 | 0.00 | 61 | 1013.5 |
| 20260504020945 | 50 | 257 | 0.0 | 7.0 | 0.00 | 0.00 | 0.00 | 59 | 1013.5 |
| 20260504020445 | 50 | 259 | 0.9 | 7.0 | 0.00 | 0.00 | 0.00 | 59 | 1013.6 |
| 20260504015940 | 50 | 248 | 0.9 | 7.0 | 0.00 | 0.00 | 0.00 | 58 | 1013.5 |
| 20260504015441 | 50 | 265 | 0.0 | 0.0 | 0.00 | 0.00 | 0.00 | 58 | 1013.6 |
| 20260504014941 | 50 | 250 | 0.0 | 0.0 | 0.00 | 0.00 | 0.00 | 57 | 1013.5 |
| 20260504014441 | 50 | 238 | 0.0 | 0.0 | 0.00 | 0.00 | 0.00 | 58 | 1013.5 |
| 20260504013939 | 50 | 217 | 0.0 | 0.0 | 0.00 | 0.00 | 0.00 | 58 | 1013.5 |
| 20260504013439 | 51 | 248 | 0.0 | 0.0 | 0.00 | 0.00 | 0.00 | 58 | 1013.4 |
| 20260504012934 | 51 | 229 | 0.0 | 0.0 | 0.00 | 0.00 | 0.00 | 57 | 1013.5 |
| 20260504012706 | 51 | 238 | 0.0 | 0.0 | 0.00 | 0.00 | 0.00 | 56 | 1013.4 |
| 20260504011931 | 51 | 253 | 0.0 | 0.0 | 0.00 | 0.00 | 0.00 | 56 | 1013.3 |
| 20260504011433 | 52 | 255 | 0.0 | 0.0 | 0.00 | 0.00 | 0.00 | 54 | 1013.3 |
| 20260504010933 | 52 | 241 | 0.0 | 0.0 | 0.00 | 0.00 | 0.00 | 54 | 1013.3 |
| 20260504010434 | 52 | 242 | 0.0 | 0.0 | 0.00 | 0.00 | 0.00 | 53 | 1013.3 |
| 20260504005930 | 52 | 259 | 0.0 | 0.0 | 0.00 | 0.00 | 0.00 | 53 | 1013.3 |
| 20260504005428 | 52 | 260 | 0.0 | 0.0 | 0.00 | 0.00 | 0.00 | 54 | 1013.3 |
| 20260504004929 | 52 | 249 | 0.0 | 0.0 | 0.00 | 0.00 | 0.00 | 54 | 1013.3 |
| 20260504004701 | 52 | 248 | 0.0 | 0.0 | 0.00 | 0.00 | 0.00 | 53 | 1013.2 |
| 20260504004158 | 53 | 259 | 0.0 | 7.0 | 0.00 | 0.00 | 0.00 | 53 | 1013.1 |
| 20260504003657 | 53 | 273 | 0.0 | 7.0 | 0.00 | 0.00 | 0.00 | 53 | 1013.2 |
| 20260504003151 | 53 | 258 | 0.9 | 7.0 | 0.00 | 0.00 | 0.00 | 53 | 1013.1 |
| 20260504002421 | 53 | 261 | 0.9 | 7.0 | 0.00 | 0.00 | 0.00 | 53 | 1013.1 |
| 20260504001926 | 54 | 227 | 0.9 | 8.7 | 0.00 | 0.00 | 0.00 | 52 | 1013.0 |
| 20260504001921 | 53 | 267 | 0.0 | 0.0 | 0.00 | 0.00 | 0.00 | 52 | 1013.0 |
| 20260504000920 | 54 | 257 | 1.7 | 8.7 | 0.00 | 0.00 | 0.00 | 51 | 1012.9 |
| 20260504000421 | 55 | 263 | 0.9 | 7.0 | 0.00 | 0.00 | 0.00 | 51 | 1012.8 |
| 20260504000145 | 55 | 255 | 1.7 | 12.2 | 0.00 | 0.00 | 0.00 | 50 | 1012.8 |
| 20260503235414 | 55 | 273 | 3.5 | 12.2 | 0.00 | 0.00 | 0.00 | 49 | 1012.7 |
| 20260503235145 | 56 | 252 | 5.2 | 13.0 | 0.00 | 0.00 | 0.00 | 48 | 1012.6 |
| 20260503234415 | 56 | 277 | 3.5 | 13.0 | 0.00 | 0.00 | 0.00 | 47 | 1012.6 |
| 20260503233915 | 57 | 248 | 1.7 | 10.4 | 0.00 | 0.00 | 0.00 | 46 | 1012.6 |
| 20260503233416 | 57 | 254 | 3.5 | 14.8 | 0.00 | 0.00 | 0.00 | 46 | 1012.6 |
| 20260503232910 | 58 | 300 | 5.2 | 14.8 | 0.00 | 0.00 | 0.00 | 45 | 1012.5 |
| 20260503232411 | 58 | 260 | 5.2 | 14.8 | 0.00 | 0.00 | 0.00 | 44 | 1012.5 |
| 20260503231907 | 58 | 288 | 5.2 | 14.8 | 0.00 | 0.00 | 0.00 | 45 | 1012.5 |
| 20260503231409 | 58 | 239 | 7.0 | 14.8 | 0.00 | 0.00 | 0.00 | 44 | 1012.6 |
| 20260503230908 | 59 | 254 | 7.0 | 14.8 | 0.00 | 0.00 | 0.00 | 43 | 1012.4 |
| 20260503230409 | 59 | 295 | 7.0 | 14.8 | 0.00 | 0.00 | 0.00 | 42 | 1012.5 |
| 20260503225901 | 60 | 216 | 7.0 | 14.8 | 0.00 | 0.00 | 0.00 | 43 | 1012.3 |
| 20260503225401 | 60 | 267 | 7.8 | 14.8 | 0.00 | 0.00 | 0.00 | 40 | 1012.5 |
| 20260503224904 | 60 | 293 | 6.1 | 16.5 | 0.00 | 0.00 | 0.00 | 42 | 1012.4 |
| 20260503224400 | 60 | 277 | 4.3 | 16.5 | 0.00 | 0.00 | 0.00 | 40 | 1012.5 |
| 20260503223859 | 60 | 263 | 6.1 | 16.5 | 0.00 | 0.00 | 0.00 | 42 | 1012.4 |
| 20260503223358 | 60 | 263 | 7.8 | 16.5 | 0.00 | 0.00 | 0.00 | 41 | 1012.4 |
| 20260503222858 | 60 | 291 | 8.7 | 16.5 | 0.00 | 0.00 | 0.00 | 43 | 1012.3 |
| 20260503222359 | 60 | 268 | 9.6 | 16.5 | 0.00 | 0.00 | 0.00 | 40 | 1012.5 |
| 20260503221854 | 60 | 267 | 9.6 | 16.5 | 0.00 | 0.00 | 0.00 | 40 | 1012.4 |
| 20260503221354 | 61 | 286 | 9.6 | 16.5 | 0.00 | 0.00 | 0.00 | 42 | 1012.5 |
| 20260503220853 | 61 | 267 | 9.6 | 15.6 | 0.00 | 0.00 | 0.00 | 45 | 1012.5 |
| 20260503220353 | 60 | 280 | 8.7 | 15.6 | 0.00 | 0.00 | 0.00 | 40 | 1012.5 |
| 20260503215854 | 60 | 277 | 7.0 | 14.8 | 0.00 | 0.00 | 0.00 | 41 | 1012.5 |
| 20260503215355 | 60 | 245 | 7.0 | 14.8 | 0.00 | 0.00 | 0.00 | 42 | 1012.5 |
| 20260503214849 | 60 | 298 | 9.6 | 17.4 | 0.00 | 0.00 | 0.00 | 45 | 1012.5 |
| 20260503214349 | 61 | 248 | 8.7 | 17.4 | 0.00 | 0.00 | 0.00 | 42 | 1012.5 |
| 20260503213849 | 61 | 257 | 7.8 | 17.4 | 0.00 | 0.00 | 0.00 | 44 | 1012.4 |
| 20260503213350 | 61 | 268 | 8.7 | 17.4 | 0.00 | 0.00 | 0.00 | 44 | 1012.3 |
| 20260503212851 | 61 | 219 | 9.6 | 19.1 | 0.00 | 0.00 | 0.00 | 43 | 1012.3 |
| 20260503212617 | 61 | 263 | 8.7 | 19.1 | 0.00 | 0.00 | 0.00 | 43 | 1012.3 |
| 20260503211847 | 61 | 277 | 7.8 | 18.2 | 0.00 | 0.00 | 0.00 | 44 | 1012.3 |
| 20260503211345 | 61 | 238 | 7.8 | 20.0 | 0.00 | 0.00 | 0.00 | 44 | 1012.2 |
| 20260503210845 | 61 | 321 | 9.6 | 20.0 | 0.00 | 0.00 | 0.00 | 44 | 1012.4 |
| 20260503210346 | 61 | 282 | 9.6 | 19.1 | 0.00 | 0.00 | 0.00 | 45 | 1012.3 |
| 20260503205846 | 61 | 240 | 7.8 | 19.1 | 0.00 | 0.00 | 0.00 | 46 | 1012.3 |
| 20260503205341 | 61 | 294 | 8.7 | 20.9 | 0.00 | 0.00 | 0.00 | 40 | 1012.3 |
| 20260503204842 | 61 | 275 | 7.8 | 20.9 | 0.00 | 0.00 | 0.00 | 43 | 1012.3 |
| 20260503204341 | 61 | 242 | 7.0 | 15.6 | 0.00 | 0.00 | 0.00 | 46 | 1012.3 |
| 20260503204113 | 60 | 281 | 7.0 | 14.8 | 0.00 | 0.00 | 0.00 | 43 | 1012.3 |
| 20260503203341 | 61 | 296 | 7.8 | 13.9 | 0.00 | 0.00 | 0.00 | 45 | 1012.4 |
| 20260503202843 | 61 | 301 | 7.8 | 13.9 | 0.00 | 0.00 | 0.00 | 41 | 1012.3 |